This is the latest recevied weather packets stored in our database for station/object N9WHM. If no packets are shown the sender has not sent any weather packets the latest 10 day(s).
| Time | Temp. | Humidity | Pressure | Rain* | Wind** | Luminosity | Snow |
|---|---|---|---|---|---|---|---|
| 1777779529 | 12.78° C | 42% | 1011.5 hPa | 0 mm | - | 0 W/m² | - |
| 1777779227 | 13.33° C | 41% | 1011.2 hPa | 0 mm | - | 0 W/m² | - |
| 1777778924 | 13.33° C | 40% | 1011.7 hPa | 0 mm | - | 0 W/m² | - |
| 1777778623 | 13.33° C | 40% | 1011.8 hPa | 0 mm | - | 0 W/m² | - |
| 1777778320 | 13.33° C | 39% | 1011.7 hPa | 0 mm | - | 0 W/m² | - |
| 1777778018 | 13.33° C | 40% | 1011.9 hPa | 0 mm | - | 0 W/m² | - |
| 1777777714 | 13.33° C | 40% | 1012.1 hPa | 0 mm | - | 0 W/m² | - |
| 1777777411 | 12.78° C | 40% | 1011.8 hPa | 0 mm | - | 0 W/m² | - |
| 1777777107 | 13.33° C | 39% | 1011.8 hPa | 0 mm | - | 0 W/m² | - |
| 1777776805 | 13.33° C | 40% | 1011.8 hPa | 0 mm | - | 0 W/m² | - |
| 1777776502 | 13.33° C | 39% | 1012.2 hPa | 0 mm | - | 0 W/m² | - |
| 1777776198 | 13.33° C | 39% | 1012 hPa | 0 mm | - | 0 W/m² | - |
| 1777775895 | 13.89° C | 38% | 1012 hPa | 0 mm | - | 0 W/m² | - |
| 1777775593 | 13.89° C | 38% | 1012 hPa | 0 mm | - | 0 W/m² | - |
| 1777775289 | 14.44° C | 37% | 1012.2 hPa | 0 mm | - | 0 W/m² | - |
| 1777774988 | 14.44° C | 36% | 1012.4 hPa | 0 mm | - | 0 W/m² | - |
| 1777774685 | 14.44° C | 37% | 1012.3 hPa | 0 mm | - | 0 W/m² | - |
| 1777774381 | 15° C | 36% | 1012.2 hPa | 0 mm | - | 0 W/m² | - |
| 1777774079 | 15° C | 35% | 1012.2 hPa | 0 mm | - | 0 W/m² | - |
| 1777773777 | 15° C | 34% | 1012.3 hPa | 0 mm | - | 0 W/m² | - |
| 1777773472 | 15.56° C | 34% | 1012.4 hPa | 0 mm | - | 0 W/m² | - |
| 1777773169 | 15.56° C | 33% | 1012.4 hPa | 0 mm | - | 0 W/m² | - |
| 1777772865 | 16.11° C | 33% | 1012.6 hPa | 0 mm | - | 0 W/m² | - |
| 1777772564 | 16.11° C | 33% | 1012.6 hPa | 0 mm | - | 0 W/m² | - |
| 1777772260 | 16.67° C | 33% | 1012.6 hPa | 0 mm | - | 0 W/m² | - |
* Rain latest hour (hover to see other rain measurements)
** Current wind speed in m/s (hover to see current wind gust speed)